FW1436 Weather Reports


Display with metric or nautical units.
time (UTC)temp
F
wind
direction
speed
MPH
gust
MPH
rain 1hr
in
rain 24hr
in
rain mn
in
humidity
%
barometer
mb
20260904213033 88 63 0.0 1.0 0.00 0.00 0.00 24 1015.8
20260904211533 87 5 0.0 2.0 0.00 0.00 0.00 24 1015.9
20260904210030 88 49 0.0 2.0 0.00 0.00 0.00 24 1016.0
20260904204530 88 307 0.0 2.0 0.00 0.00 0.00 24 1016.0
20260904203038 87 30 0.0 1.0 0.00 0.00 0.00 24 1015.9
20260904201529 87 302 0.0 2.0 0.00 0.00 0.00 24 1015.8
20260904200028 86 66 0.0 2.0 0.00 0.00 0.00 25 1015.8
20260904194528 85 75 0.0 2.0 0.00 0.00 0.00 28 1015.6
20260904193029 86 127 0.0 0.0 0.00 0.00 0.00 27 1015.4
20260904191526 87 127 0.0 0.0 0.00 0.00 0.00 25 1015.4
20260904190026 88 117 0.0 2.0 0.00 0.00 0.00 24 1015.1
20260904184623 90 220 0.0 0.0 0.00 0.00 0.00 23 1015.0
20260904183025 92 219 0.0 1.0 0.00 0.00 0.00 21 1015.0
20260904181523 93 221 0.0 1.0 0.00 0.00 0.00 20 1014.9
20260904180022 94 215 0.0 1.0 0.00 0.00 0.00 19 1014.9
20260904174521 95 224 0.0 1.0 0.00 0.00 0.00 19 1015.0
20260904173028 96 271 0.0 3.0 0.00 0.00 0.00 19 1015.0
20260904171520 96 254 0.0 3.0 0.00 0.00 0.00 19 1015.0
20260904170019 96 239 0.0 3.0 0.00 0.00 0.00 20 1015.0
20260904164521 96 226 2.0 0.0 0.00 0.00 0.00 19 1015.0
20260904163018 97 231 0.0 7.0 0.00 0.00 0.00 19 1015.0
20260904161517 97 217 1.0 6.0 0.00 0.00 0.00 18 1015.0
20260904160020 99 212 3.0 6.0 0.00 0.00 0.00 17 1015.0
20260904154515 99 114 1.0 7.0 0.00 0.00 0.00 18 1015.1
20260904153014 98 134 1.0 7.0 0.00 0.00 0.00 19 1015.1
20260904151515 99 155 1.0 4.0 0.00 0.00 0.00 17 1015.2
20260904150029 100 270 2.0 10.0 0.00 0.00 0.00 17 1015.3
20260904144511 100 190 1.0 3.0 0.00 0.00 0.00 18 1015.5
20260904143009 99 84 0.0 4.0 0.00 0.00 0.00 18 1015.5
20260904141515 99 264 2.0 9.0 0.00 0.00 0.00 17 1015.6
20260904140007 99 169 1.0 3.0 0.00 0.00 0.00 18 1015.7
20260904134503 99 295 1.0 8.0 0.00 0.00 0.00 17 1016.0
20260904133006 99 260 1.0 8.0 0.00 0.00 0.00 17 1016.0
20260904131501 100 336 2.0 6.0 0.00 0.00 0.00 16 1016.2
20260904130059 98 277 2.0 9.0 0.00 0.00 0.00 16 1016.4
20260904124613 98 272 2.0 7.0 0.00 0.00 0.00 18 1016.4
20260904123055 97 243 2.0 7.0 0.00 0.00 0.00 19 1016.6
20260904121555 97 274 2.0 6.0 0.00 0.00 0.00 18 1016.7
20260904120055 97 242 3.0 7.0 0.00 0.00 0.00 18 1016.9
20260904114548 97 297 2.0 7.0 0.00 0.00 0.00 19 1017.1
20260904113050 96 293 0.0 5.0 0.00 0.00 0.00 20 1017.3
20260904111544 95 226 0.0 6.0 0.00 0.00 0.00 21 1017.5
20260904110041 94 165 1.0 6.0 0.00 0.00 0.00 21 1017.8
20260904104541 93 223 2.0 5.0 0.00 0.00 0.00 22 1017.9
20260904103044 91 156 0.0 4.0 0.00 0.00 0.00 24 1018.2
20260904101535 91 153 0.0 4.0 0.00 0.00 0.00 25 1018.3
20260904100032 91 258 0.0 2.0 0.00 0.00 0.00 25 1018.3
20260904094529 89 300 1.0 3.0 0.00 0.00 0.00 25 1018.3
20260904093027 87 129 0.0 2.0 0.00 0.00 0.00 27 1018.3
20260904091523 85 127 0.0 1.0 0.00 0.00 0.00 31 1018.2
20260904090017 82 101 0.0 3.0 0.00 0.00 0.00 34 1018.3
20260904084516 81 58 0.0 0.0 0.00 0.00 0.00 37 1018.2
20260904083013 80 103 0.0 1.0 0.00 0.00 0.00 37 1018.2
20260904081508 78 123 0.0 1.0 0.00 0.00 0.00 38 1017.9
20260904080006 76 214 0.0 1.0 0.00 0.00 0.00 43 1018.0
20260904074505 73 229 0.0 0.0 0.00 0.00 0.00 49 1018.1
20260904073005 71 229 0.0 0.0 0.00 0.00 0.00 50 1018.1
20260904071504 71 229 0.0 0.0 0.00 0.00 0.00 46 1018.1
20260904064500 67 229 0.0 0.0 0.00 0.00 0.00 50 1017.7
20260904063105 0 0.0 0.0 0.00 0.00 0.00 1017.7
20260904061553 0 0.0 0.0 0.00 0.00 0.00 1017.6
20260904060048 0 0.0 0.0 0.00 0.00 0.00 1017.2
20260904054545 0 0.0 0.0 0.00 0.00 0.00 1017.2
20260904053041 0 0.0 0.0 0.00 0.00 0.00 1017.2
20260904051555 0 0.0 0.0 0.00 0.00 0.00 1017.1
20260904050031 0 232 0.0 0.0 0.00 0.00 0.00 1017.2
20260904044528 66 229 0.0 0.0 0.00 0.00 0.00 45 1017.2
20260904043027 66 229 0.0 0.0 0.00 0.00 0.00 46 1017.2
20260904041523 68 229 0.0 0.0 0.00 0.00 0.00 44 1017.2
20260904040028 68 229 0.0 3.0 0.00 0.00 0.00 42 1017.3
20260904034520 69 219 0.0 0.0 0.00 0.00 0.00 43 1017.2
20260904033018 69 219 0.0 1.0 0.00 0.00 0.00 41 1017.3
20260904031516 70 219 0.0 0.0 0.00 0.00 0.00 37 1017.5
20260904030016 69 232 1.0 1.0 0.00 0.00 0.00 39 1017.4
20260904024515 68 212 0.0 0.0 0.00 0.00 0.00 45 1017.4
20260904023011 70 213 0.0 0.0 0.00 0.00 0.00 41 1017.2
20260904021510 70 146 0.0 0.0 0.00 0.00 0.00 39 1017.3
20260904020006 70 146 0.0 0.0 0.00 0.00 0.00 42 1017.5
20260904014505 70 146 0.0 0.0 0.00 0.00 0.00 42 1017.6
20260904013006 70 146 0.0 0.0 0.00 0.00 0.00 42 1017.8
20260904011501 71 147 0.0 0.0 0.00 0.00 0.00 42 1017.8
20260904010115 71 147 0.0 0.0 0.00 0.00 0.00 39 1018.0
20260904004557 72 115 0.0 1.0 0.00 0.00 0.00 37 1018.1
20260904003054 73 114 0.0 0.0 0.00 0.00 0.00 40 1018.2
20260904001552 74 227 0.0 0.0 0.00 0.00 0.00 38 1018.0
20260904000055 74 227 0.0 1.0 0.00 0.00 0.00 39 1018.1
20260903234547 75 227 0.0 0.0 0.00 0.00 0.00 36 1018.1
20260903233046 75 217 0.0 0.0 0.00 0.00 0.00 35 1017.9
20260903231543 76 221 0.0 2.0 0.00 0.00 0.00 35 1017.9
20260903230041 75 219 0.0 0.0 0.00 0.00 0.00 39 1017.8
20260903224539 75 217 0.0 0.0 0.00 0.00 0.00 37 1017.7
20260903223039 76 217 0.0 1.0 0.00 0.00 0.00 37 1017.6
20260903221535 76 222 0.0 0.0 0.00 0.00 0.00 35 1017.6
20260903220031 78 223 0.0 1.0 0.00 0.00 0.00 32 1017.8
20260903214530 79 223 0.0 1.0 0.00 0.00 0.00 30 1017.6